| time (UTC) | temp C | wind direction | speed KPH | gust KPH | rain 1hr cm | rain 24hr cm | rain mn cm | humidity % | barometer mb |
| 20260510020104 | 13 | 354 | 6.4 | 12.9 | 0.00 | 0.00 | 0.00 | 65 | 1008.6 |
| 20260510015600 | 13 | 271 | 6.4 | 9.7 | 0.00 | 0.00 | 0.00 | 64 | 1008.5 |
| 20260510015056 | 13 | 266 | 3.2 | 4.8 | 0.00 | 0.00 | 0.00 | 65 | 1008.3 |
| 20260510014552 | 13 | 248 | 8.0 | 12.9 | 0.00 | 0.00 | 0.00 | 64 | 1008.2 |
| 20260510014050 | 13 | 198 | 3.2 | 4.8 | 0.00 | 0.00 | 0.00 | 67 | 1008.3 |
| 20260510013544 | 13 | 226 | 4.8 | 4.8 | 0.00 | 0.00 | 0.00 | 67 | 1008.3 |
| 20260510013040 | 13 | 197 | 1.6 | 1.6 | 0.00 | 0.00 | 0.00 | 68 | 1008.2 |
| 20260510012534 | 14 | 341 | 4.8 | 6.4 | 0.00 | 0.00 | 0.00 | 67 | 1007.9 |
| 20260510012031 | 13 | 257 | 6.4 | 9.7 | 0.00 | 0.00 | 0.00 | 66 | 1007.9 |
| 20260510011530 | 13 | 236 | 3.2 | 3.2 | 0.00 | 0.00 | 0.00 | 68 | 1007.8 |
| 20260510011026 | 13 | 218 | 3.2 | 4.8 | 0.00 | 0.00 | 0.00 | 68 | 1007.7 |
| 20260510010523 | 13 | 349 | 1.6 | 3.2 | 0.00 | 0.00 | 0.00 | 68 | 1007.6 |
| 20260510010020 | 13 | 210 | 4.8 | 6.4 | 0.00 | 0.00 | 0.00 | 69 | 1007.7 |
| 20260510005516 | 14 | 247 | 8.0 | 11.3 | 0.00 | 0.00 | 0.00 | 67 | 1007.7 |
| 20260510005014 | 14 | 264 | 4.8 | 6.4 | 0.00 | 0.00 | 0.00 | 67 | 1007.4 |
| 20260510004511 | 14 | 281 | 3.2 | 6.4 | 0.00 | 0.00 | 0.00 | 66 | 1007.2 |
| 20260510004009 | 14 | 67 | 3.2 | 3.2 | 0.00 | 0.00 | 0.00 | 67 | 1007.2 |
| 20260510003505 | 14 | 55 | 1.6 | 1.6 | 0.00 | 0.00 | 0.00 | 66 | 1007.4 |
| 20260510003001 | 14 | 89 | 3.2 | 3.2 | 0.00 | 0.00 | 0.00 | 66 | 1007.1 |
| 20260510002457 | 14 | 31 | 6.4 | 9.7 | 0.00 | 0.00 | 0.00 | 66 | 1007.2 |
| 20260510001953 | 14 | 314 | 4.8 | 6.4 | 0.00 | 0.00 | 0.00 | 66 | 1007.1 |
| 20260510001451 | 15 | 78 | 1.6 | 1.6 | 0.00 | 0.00 | 0.00 | 67 | 1007.1 |
| 20260510000949 | 15 | 203 | 6.4 | 6.4 | 0.00 | 0.00 | 0.00 | 67 | 1006.9 |
| 20260510000444 | 15 | 240 | 4.8 | 4.8 | 0.00 | 0.00 | 0.00 | 66 | 1007.1 |
| 20260509235941 | 15 | 270 | 3.2 | 3.2 | 0.00 | 0.00 | 0.00 | 67 | 1006.9 |
| 20260509235437 | 15 | 235 | 4.8 | 6.4 | 0.00 | 0.00 | 0.00 | 68 | 1006.7 |
| 20260509234934 | 14 | 271 | 3.2 | 4.8 | 0.00 | 0.00 | 0.00 | 72 | 1007.2 |
| 20260509234431 | 15 | 259 | 0.0 | 1.6 | 0.00 | 0.00 | 0.00 | 74 | 1007.2 |
| 20260509233929 | 15 | 317 | 3.2 | 4.8 | 0.00 | 0.00 | 0.00 | 70 | 1007.1 |
| 20260509233426 | 15 | 120 | 3.2 | 3.2 | 0.00 | 0.00 | 0.00 | 73 | 1006.9 |
| 20260509232922 | 15 | 237 | 3.2 | 4.8 | 0.00 | 0.00 | 0.00 | 71 | 1007.1 |
| 20260509232420 | 16 | 346 | 3.2 | 4.8 | 0.00 | 0.00 | 0.00 | 69 | 1007.1 |
| 20260509231915 | 16 | 285 | 1.6 | 3.2 | 0.00 | 0.00 | 0.00 | 68 | 1007.1 |
| 20260509231412 | 16 | 271 | 3.2 | 4.8 | 0.00 | 0.00 | 0.00 | 67 | 1006.9 |
| 20260509230911 | 16 | 78 | 1.6 | 3.2 | 0.00 | 0.00 | 0.00 | 67 | 1007.1 |
| 20260509230407 | 16 | 68 | 3.2 | 4.8 | 0.00 | 0.00 | 0.00 | 65 | 1007.1 |
| 20260509225903 | 16 | 45 | 1.6 | 3.2 | 0.00 | 0.00 | 0.00 | 65 | 1006.8 |
| 20260509225400 | 17 | 55 | 0.0 | 3.2 | 0.00 | 0.00 | 0.00 | 62 | 1006.7 |
| 20260509224855 | 16 | 274 | 3.2 | 3.2 | 0.00 | 0.00 | 0.00 | 65 | 1006.8 |
| 20260509224351 | 16 | 273 | 0.0 | 1.6 | 0.00 | 0.00 | 0.00 | 64 | 1006.8 |
| 20260509223849 | 15 | 238 | 4.8 | 11.3 | 0.00 | 0.00 | 0.00 | 65 | 1006.7 |
| 20260509223345 | 15 | 206 | 3.2 | 6.4 | 0.00 | 0.00 | 0.00 | 65 | 1006.7 |
| 20260509222842 | 16 | 89 | 3.2 | 4.8 | 0.00 | 0.00 | 0.00 | 60 | 1007.1 |
| 20260509222337 | 17 | 267 | 4.8 | 4.8 | 0.00 | 0.00 | 0.00 | 56 | 1007.1 |
| 20260509221833 | 17 | 330 | 3.2 | 4.8 | 0.00 | 0.00 | 0.00 | 56 | 1006.7 |
| 20260509221331 | 17 | 75 | 1.6 | 1.6 | 0.00 | 0.00 | 0.00 | 58 | 1006.9 |
| 20260509220830 | 16 | 91 | 1.6 | 1.6 | 0.00 | 0.00 | 0.00 | 58 | 1006.9 |
| 20260509220327 | 17 | 125 | 1.6 | 3.2 | 0.00 | 0.00 | 0.00 | 59 | 1006.8 |
| 20260509215822 | 17 | 158 | 6.4 | 11.3 | 0.00 | 0.00 | 0.00 | 56 | 1006.6 |
| 20260509215320 | 16 | 7 | 1.6 | 1.6 | 0.00 | 0.00 | 0.00 | 61 | 1006.6 |
| 20260509214816 | 16 | 73 | 3.2 | 3.2 | 0.00 | 0.00 | 0.00 | 60 | 1006.7 |
| 20260509214313 | 16 | 20 | 0.0 | 0.0 | 0.00 | 0.00 | 0.00 | 57 | 1006.9 |
| 20260509213810 | 16 | 34 | 0.0 | 1.6 | 0.00 | 0.00 | 0.00 | 59 | 1006.7 |
| 20260509213306 | 16 | 351 | 3.2 | 4.8 | 0.00 | 0.00 | 0.00 | 61 | 1006.8 |
| 20260509212804 | 16 | 285 | 1.6 | 4.8 | 0.00 | 0.00 | 0.00 | 64 | 1006.6 |
| 20260509212301 | 17 | 261 | 1.6 | 1.6 | 0.00 | 0.00 | 0.00 | 63 | 1006.8 |
| 20260509211756 | 17 | 325 | 1.6 | 1.6 | 0.00 | 0.00 | 0.00 | 61 | 1006.6 |
| 20260509211253 | 16 | 1 | 1.6 | 4.8 | 0.00 | 0.00 | 0.00 | 63 | 1006.6 |
| 20260509210749 | 16 | 319 | 4.8 | 6.4 | 0.00 | 0.00 | 0.00 | 62 | 1006.5 |
| 20260509210248 | 16 | 223 | 6.4 | 6.4 | 0.00 | 0.00 | 0.00 | 65 | 1006.6 |
| 20260509205746 | 17 | 13 | 3.2 | 6.4 | 0.00 | 0.00 | 0.00 | 63 | 1006.5 |
| 20260509205241 | 17 | 335 | 1.6 | 4.8 | 0.00 | 0.00 | 0.00 | 61 | 1006.5 |
| 20260509204737 | 17 | 89 | 3.2 | 3.2 | 0.00 | 0.00 | 0.00 | 63 | 1006.3 |
| 20260509204234 | 18 | 111 | 6.4 | 9.7 | 0.00 | 0.00 | 0.00 | 60 | 1006.3 |
| 20260509203730 | 16 | 61 | 1.6 | 3.2 | 0.00 | 0.00 | 0.00 | 66 | 1006.3 |
| 20260509203229 | 17 | 144 | 6.4 | 9.7 | 0.00 | 0.00 | 0.00 | 64 | 1006.2 |
| 20260509202724 | 17 | 125 | 6.4 | 9.7 | 0.00 | 0.00 | 0.00 | 63 | 1006.2 |
| 20260509202220 | 17 | 177 | 1.6 | 3.2 | 0.00 | 0.00 | 0.00 | 66 | 1006.2 |
| 20260509201714 | 16 | 237 | 1.6 | 1.6 | 0.00 | 0.00 | 0.00 | 67 | 1006.1 |
| 20260509201212 | 16 | 130 | 1.6 | 1.6 | 0.00 | 0.00 | 0.00 | 65 | 1006.4 |
| 20260509200709 | 16 | 291 | 1.6 | 3.2 | 0.00 | 0.00 | 0.00 | 66 | 1006.5 |
| 20260509200209 | 17 | 240 | 3.2 | 4.8 | 0.00 | 0.00 | 0.00 | 65 | 1006.3 |
| 20260509195706 | 16 | 90 | 4.8 | 9.7 | 0.00 | 0.00 | 0.00 | 66 | 1006.4 |
| 20260509195201 | 16 | 86 | 6.4 | 9.7 | 0.00 | 0.00 | 0.00 | 68 | 1006.3 |
| 20260509194700 | 15 | 319 | 1.6 | 1.6 | 0.00 | 0.00 | 0.00 | 70 | 1006.5 |
| 20260509194157 | 16 | 187 | 3.2 | 4.8 | 0.00 | 0.00 | 0.00 | 68 | 1006.5 |
| 20260509193654 | 16 | 139 | 3.2 | 6.4 | 0.00 | 0.00 | 0.00 | 68 | 1006.6 |
| 20260509193149 | 16 | 297 | 1.6 | 3.2 | 0.00 | 0.00 | 0.00 | 67 | 1006.7 |
| 20260509192646 | 15 | 86 | 3.2 | 4.8 | 0.00 | 0.00 | 0.00 | 70 | 1006.8 |
| 20260509192141 | 15 | 82 | 3.2 | 3.2 | 0.00 | 0.00 | 0.00 | 69 | 1006.7 |
| 20260509191635 | 15 | 186 | 3.2 | 4.8 | 0.00 | 0.00 | 0.00 | 69 | 1006.8 |
| 20260509191132 | 15 | 340 | 1.6 | 3.2 | 0.00 | 0.00 | 0.00 | 72 | 1006.7 |
| 20260509190629 | 15 | 91 | 1.6 | 3.2 | 0.00 | 0.00 | 0.00 | 71 | 1007.1 |
| 20260509190126 | 16 | 170 | 4.8 | 6.4 | 0.00 | 0.00 | 0.00 | 70 | 1006.9 |
| 20260509185623 | 17 | 79 | 1.6 | 3.2 | 0.00 | 0.00 | 0.00 | 66 | 1006.9 |
| 20260509185119 | 16 | 170 | 3.2 | 4.8 | 0.00 | 0.00 | 0.00 | 72 | 1006.9 |
| 20260509184618 | 16 | 173 | 6.4 | 9.7 | 0.00 | 0.00 | 0.00 | 71 | 1007.1 |
| 20260509184114 | 16 | 238 | 4.8 | 4.8 | 0.00 | 0.00 | 0.00 | 63 | 1007.1 |
| 20260509183609 | 15 | 115 | 11.3 | 16.1 | 0.00 | 0.00 | 0.00 | 70 | 1007.1 |
| 20260509183106 | 15 | 126 | 9.7 | 11.3 | 0.00 | 0.00 | 0.00 | 69 | 1006.9 |
| 20260509182602 | 15 | 358 | 4.8 | 6.4 | 0.00 | 0.00 | 0.00 | 70 | 1006.9 |
| 20260509182059 | 15 | 110 | 1.6 | 3.2 | 0.00 | 0.00 | 0.00 | 72 | 1007.2 |
| 20260509181557 | 16 | 285 | 1.6 | 1.6 | 0.00 | 0.00 | 0.00 | 68 | 1007.3 |
| 20260509181054 | 15 | 270 | 1.6 | 1.6 | 0.00 | 0.00 | 0.00 | 72 | 1007.1 |
| 20260509180549 | 14 | 54 | 3.2 | 4.8 | 0.00 | 0.00 | 0.00 | 75 | 1007.4 |
| 20260509180048 | 14 | 125 | 1.6 | 4.8 | 0.00 | 0.00 | 0.00 | 76 | 1007.6 |
| 20260509175542 | 14 | 121 | 4.8 | 6.4 | 0.00 | 0.00 | 0.00 | 75 | 1007.7 |
| 20260509175040 | 14 | 52 | 4.8 | 4.8 | 0.00 | 0.00 | 0.00 | 77 | 1007.6 |
| 20260509174536 | 14 | 166 | 1.6 | 3.2 | 0.00 | 0.00 | 0.00 | 76 | 1007.5 |
| 20260509174031 | 14 | 26 | 0.0 | 1.6 | 0.00 | 0.00 | 0.00 | 76 | 1007.7 |
| 20260509173526 | 13 | 138 | 3.2 | 4.8 | 0.00 | 0.00 | 0.00 | 78 | 1007.9 |
| 20260509173023 | 13 | 11 | 1.6 | 1.6 | 0.00 | 0.00 | 0.00 | 78 | 1007.9 |
| 20260509172520 | 13 | 15 | 0.0 | 1.6 | 0.00 | 0.00 | 0.00 | 78 | 1007.8 |
| 20260509172015 | 13 | 54 | 0.0 | 1.6 | 0.00 | 0.00 | 0.00 | 79 | 1007.9 |
| 20260509171512 | 13 | 147 | 3.2 | 4.8 | 0.00 | 0.00 | 0.00 | 78 | 1007.8 |
| 20260509171008 | 13 | 60 | 0.0 | 1.6 | 0.00 | 0.00 | 0.00 | 79 | 1008.0 |
| 20260509170504 | 13 | 141 | 3.2 | 3.2 | 0.00 | 0.00 | 0.00 | 77 | 1008.2 |
| 20260509165959 | 13 | 333 | 0.0 | 1.6 | 0.00 | 0.00 | 0.00 | 77 | 1007.8 |
| 20260509165458 | 13 | 23 | 0.0 | 0.0 | 0.00 | 0.00 | 0.00 | 75 | 1007.8 |
| 20260509164955 | 14 | 314 | 1.6 | 3.2 | 0.00 | 0.00 | 0.00 | 72 | 1007.8 |
| 20260509164450 | 15 | 87 | 1.6 | 3.2 | 0.00 | 0.00 | 0.00 | 70 | 1007.8 |
| 20260509163946 | 14 | 304 | 3.2 | 3.2 | 0.00 | 0.00 | 0.00 | 71 | 1007.6 |
| 20260509163444 | 15 | 241 | 6.4 | 9.7 | 0.00 | 0.00 | 0.00 | 74 | 1007.6 |
| 20260509162943 | 15 | 98 | 9.7 | 11.3 | 0.00 | 0.00 | 0.00 | 72 | 1007.7 |
| 20260509162442 | 15 | 330 | 1.6 | 1.6 | 0.00 | 0.00 | 0.00 | 69 | 1007.7 |
| 20260509161938 | 13 | 95 | 1.6 | 1.6 | 0.00 | 0.00 | 0.00 | 76 | 1007.6 |
| 20260509161434 | 13 | 251 | 3.2 | 4.8 | 0.00 | 0.00 | 0.00 | 74 | 1007.4 |
| 20260509160930 | 13 | 88 | 1.6 | 3.2 | 0.00 | 0.00 | 0.00 | 75 | 1007.6 |
| 20260509160426 | 13 | 6 | 1.6 | 1.6 | 0.00 | 0.00 | 0.00 | 77 | 1007.6 |
| 20260509155921 | 13 | 266 | 0.0 | 1.6 | 0.00 | 0.00 | 0.00 | 78 | 1007.6 |
| 20260509155418 | 13 | 229 | 3.2 | 4.8 | 0.00 | 0.00 | 0.00 | 75 | 1007.7 |
| 20260509154914 | 13 | 117 | 3.2 | 4.8 | 0.00 | 0.00 | 0.00 | 75 | 1007.7 |
| 20260509154411 | 12 | 99 | 3.2 | 3.2 | 0.00 | 0.00 | 0.00 | 77 | 1007.8 |
| 20260509153907 | 13 | 114 | 3.2 | 4.8 | 0.00 | 0.00 | 0.00 | 76 | 1007.7 |
| 20260509153405 | 12 | 92 | 0.0 | 1.6 | 0.00 | 0.00 | 0.00 | 77 | 1007.7 |
| 20260509152902 | 13 | 9 | 1.6 | 1.6 | 0.00 | 0.00 | 0.00 | 75 | 1007.8 |
| 20260509152357 | 13 | 103 | 1.6 | 3.2 | 0.00 | 0.00 | 0.00 | 78 | 1007.5 |
| 20260509151855 | 13 | 79 | 1.6 | 1.6 | 0.00 | 0.00 | 0.00 | 75 | 1007.6 |
| 20260509151350 | 12 | 119 | 6.4 | 6.4 | 0.00 | 0.00 | 0.00 | 76 | 1007.7 |
| 20260509150849 | 11 | 51 | 1.6 | 3.2 | 0.00 | 0.00 | 0.00 | 80 | 1007.2 |
| 20260509150347 | 13 | 24 | 0.0 | 0.0 | 0.00 | 0.00 | 0.00 | 75 | 1007.2 |
| 20260509145844 | 13 | 18 | 0.0 | 0.0 | 0.00 | 0.00 | 0.00 | 72 | 1007.7 |
| 20260509145338 | 13 | 212 | 4.8 | 4.8 | 0.00 | 0.00 | 0.00 | 69 | 1007.7 |
| 20260509144835 | 14 | 282 | 3.2 | 4.8 | 0.00 | 0.00 | 0.00 | 70 | 1007.7 |
| 20260509144332 | 13 | 79 | 1.6 | 1.6 | 0.00 | 0.00 | 0.00 | 71 | 1007.5 |
| 20260509143829 | 14 | 15 | 1.6 | 1.6 | 0.00 | 0.00 | 0.00 | 66 | 1007.5 |
| 20260509143327 | 13 | 311 | 3.2 | 6.4 | 0.00 | 0.00 | 0.00 | 67 | 1007.6 |
| 20260509142822 | 14 | 314 | 1.6 | 3.2 | 0.00 | 0.00 | 0.00 | 69 | 1007.3 |
| 20260509142319 | 14 | 169 | 3.2 | 3.2 | 0.00 | 0.00 | 0.00 | 68 | 1007.4 |
| 20260509141814 | 13 | 358 | 3.2 | 3.2 | 0.00 | 0.00 | 0.00 | 69 | 1007.6 |
| 20260509141312 | 12 | 316 | 1.6 | 3.2 | 0.00 | 0.00 | 0.00 | 70 | 1007.5 |
| 20260509140808 | 12 | 312 | 6.4 | 9.7 | 0.00 | 0.00 | 0.00 | 75 | 1007.4 |
| 20260509140305 | 12 | 302 | 4.8 | 6.4 | 0.00 | 0.00 | 0.00 | 73 | 1007.6 |
| 20260509135803 | 12 | 355 | 3.2 | 4.8 | 0.00 | 0.00 | 0.00 | 74 | 1008.0 |
| 20260509135300 | 12 | 288 | 6.4 | 6.4 | 0.00 | 0.00 | 0.00 | 75 | 1008.0 |
| 20260509134757 | 12 | 280 | 3.2 | 3.2 | 0.00 | 0.00 | 0.00 | 75 | 1007.9 |
| 20260509134255 | 12 | 45 | 1.6 | 1.6 | 0.00 | 0.00 | 0.00 | 75 | 1008.0 |
| 20260509133752 | 12 | 288 | 4.8 | 6.4 | 0.00 | 0.00 | 0.00 | 74 | 1007.9 |
| 20260509133248 | 12 | 232 | 3.2 | 9.7 | 0.00 | 0.00 | 0.00 | 76 | 1008.2 |
| 20260509132747 | 12 | 95 | 8.0 | 16.1 | 0.00 | 0.00 | 0.00 | 76 | 1008.2 |
| 20260509132246 | 12 | 223 | 1.6 | 3.2 | 0.00 | 0.00 | 0.00 | 80 | 1008.2 |
| 20260509131742 | 11 | 91 | 3.2 | 6.4 | 0.00 | 0.00 | 0.00 | 79 | 1008.2 |
| 20260509131239 | 11 | 230 | 3.2 | 4.8 | 0.00 | 0.00 | 0.00 | 79 | 1008.2 |
| 20260509130735 | 11 | 238 | 1.6 | 3.2 | 0.00 | 0.00 | 0.00 | 80 | 1008.2 |
| 20260509130230 | 11 | 355 | 3.2 | 4.8 | 0.00 | 0.00 | 0.00 | 81 | 1007.9 |
| 20260509125727 | 11 | 301 | 3.2 | 4.8 | 0.00 | 0.00 | 0.00 | 79 | 1008.0 |
| 20260509125224 | 11 | 231 | 6.4 | 9.7 | 0.00 | 0.00 | 0.00 | 80 | 1007.9 |
| 20260509124720 | 11 | 258 | 6.4 | 9.7 | 0.00 | 0.00 | 0.00 | 79 | 1008.0 |
| 20260509124218 | 11 | 15 | 3.2 | 4.8 | 0.00 | 0.00 | 0.00 | 79 | 1008.0 |
| 20260509123716 | 11 | 203 | 6.4 | 9.7 | 0.00 | 0.00 | 0.00 | 79 | 1008.0 |
| 20260509123213 | 11 | 304 | 3.2 | 4.8 | 0.00 | 0.00 | 0.00 | 79 | 1007.8 |
| 20260509122708 | 11 | 231 | 3.2 | 3.2 | 0.00 | 0.00 | 0.00 | 79 | 1008.0 |
| 20260509122205 | 11 | 96 | 6.4 | 9.7 | 0.00 | 0.00 | 0.00 | 78 | 1008.0 |
| 20260509121701 | 11 | 274 | 1.6 | 3.2 | 0.00 | 0.00 | 0.00 | 79 | 1008.0 |
| 20260509121159 | 11 | 218 | 4.8 | 9.7 | 0.00 | 0.00 | 0.00 | 78 | 1008.0 |
| 20260509120657 | 11 | 246 | 3.2 | 4.8 | 0.00 | 0.00 | 0.00 | 80 | 1008.2 |
| 20260509120155 | 11 | 286 | 3.2 | 3.2 | 0.00 | 0.00 | 0.00 | 80 | 1008.0 |
| 20260509115652 | 11 | 312 | 0.0 | 1.6 | 0.00 | 0.00 | 0.00 | 80 | 1008.0 |
| 20260509115150 | 10 | 121 | 3.2 | 9.7 | 0.00 | 0.00 | 0.00 | 80 | 1008.2 |
| 20260509114648 | 10 | 334 | 3.2 | 3.2 | 0.00 | 0.00 | 0.00 | 80 | 1008.2 |
| 20260509114147 | 10 | 262 | 4.8 | 12.9 | 0.00 | 0.00 | 0.00 | 79 | 1007.9 |
| 20260509113645 | 10 | 74 | 0.0 | 1.6 | 0.00 | 0.00 | 0.00 | 80 | 1007.8 |
| 20260509113142 | 10 | 233 | 4.8 | 11.3 | 0.00 | 0.00 | 0.00 | 80 | 1008.0 |
| 20260509112638 | 10 | 91 | 6.4 | 9.7 | 0.00 | 0.00 | 0.00 | 80 | 1007.9 |
| 20260509112135 | 10 | 331 | 4.8 | 4.8 | 0.00 | 0.00 | 0.00 | 79 | 1008.0 |
| 20260509111632 | 10 | 122 | 3.2 | 3.2 | 0.00 | 0.00 | 0.00 | 80 | 1007.9 |
| 20260509111129 | 10 | 228 | 6.4 | 9.7 | 0.00 | 0.00 | 0.00 | 79 | 1007.6 |
| 20260509110626 | 10 | 249 | 1.6 | 4.8 | 0.00 | 0.00 | 0.00 | 79 | 1007.8 |
| 20260509110123 | 10 | 300 | 3.2 | 4.8 | 0.00 | 0.00 | 0.00 | 79 | 1007.8 |
| 20260509105621 | 10 | 247 | 6.4 | 9.7 | 0.00 | 0.00 | 0.00 | 79 | 1007.6 |
| 20260509105119 | 10 | 19 | 3.2 | 3.2 | 0.00 | 0.00 | 0.00 | 79 | 1007.9 |
| 20260509104616 | 10 | 264 | 4.8 | 6.4 | 0.00 | 0.00 | 0.00 | 78 | 1007.8 |
| 20260509104112 | 10 | 331 | 1.6 | 1.6 | 0.00 | 0.00 | 0.00 | 78 | 1007.9 |
| 20260509103610 | 10 | 228 | 6.4 | 11.3 | 0.00 | 0.00 | 0.00 | 78 | 1007.8 |
| 20260509103108 | 10 | 243 | 3.2 | 4.8 | 0.00 | 0.00 | 0.00 | 78 | 1007.7 |
| 20260509102605 | 10 | 300 | 8.0 | 11.3 | 0.00 | 0.00 | 0.00 | 78 | 1007.8 |
| 20260509102102 | 10 | 48 | 3.2 | 6.4 | 0.00 | 0.00 | 0.00 | 78 | 1007.9 |
| 20260509101558 | 10 | 249 | 6.4 | 11.3 | 0.00 | 0.00 | 0.00 | 78 | 1007.9 |
| 20260509101055 | 10 | 353 | 6.4 | 9.7 | 0.00 | 0.00 | 0.00 | 78 | 1007.7 |
| 20260509100552 | 10 | 350 | 0.0 | 1.6 | 0.00 | 0.00 | 0.00 | 78 | 1007.8 |
| 20260509100050 | 10 | 0 | 9.7 | 12.9 | 0.00 | 0.00 | 0.00 | 78 | 1007.7 |
| 20260509095546 | 10 | 286 | 4.8 | 9.7 | 0.00 | 0.00 | 0.00 | 78 | 1007.5 |
| 20260509095044 | 10 | 266 | 16.1 | 17.7 | 0.00 | 0.00 | 0.00 | 77 | 1007.7 |
| 20260509094539 | 10 | 329 | 6.4 | 11.3 | 0.00 | 0.00 | 0.00 | 77 | 1008.0 |
| 20260509094037 | 10 | 218 | 9.7 | 20.9 | 0.00 | 0.00 | 0.00 | 77 | 1007.6 |
| 20260509093535 | 10 | 248 | 6.4 | 9.7 | 0.00 | 0.00 | 0.00 | 76 | 1007.6 |
| 20260509093033 | 10 | 324 | 8.0 | 11.3 | 0.00 | 0.00 | 0.00 | 76 | 1007.7 |
| 20260509092530 | 10 | 85 | 4.8 | 6.4 | 0.00 | 0.00 | 0.00 | 76 | 1007.8 |
| 20260509092029 | 10 | 236 | 6.4 | 9.7 | 0.00 | 0.00 | 0.00 | 74 | 1008.0 |
| 20260509091526 | 10 | 280 | 1.6 | 3.2 | 0.00 | 0.00 | 0.00 | 74 | 1008.2 |
| 20260509091022 | 10 | 68 | 3.2 | 3.2 | 0.00 | 0.00 | 0.00 | 74 | 1008.2 |
| 20260509090520 | 10 | 82 | 6.4 | 11.3 | 0.00 | 0.00 | 0.00 | 73 | 1008.2 |
| 20260509090018 | 10 | 90 | 3.2 | 3.2 | 0.00 | 0.00 | 0.00 | 72 | 1007.9 |
| 20260509085514 | 10 | 278 | 9.7 | 16.1 | 0.00 | 0.00 | 0.00 | 73 | 1008.0 |
| 20260509085010 | 10 | 244 | 6.4 | 9.7 | 0.00 | 0.00 | 0.00 | 73 | 1008.0 |
| 20260509084508 | 10 | 207 | 4.8 | 12.9 | 0.00 | 0.00 | 0.00 | 72 | 1008.3 |
| 20260509084005 | 10 | 14 | 1.6 | 3.2 | 0.00 | 0.00 | 0.00 | 72 | 1007.9 |
| 20260509083502 | 10 | 206 | 4.8 | 6.4 | 0.00 | 0.00 | 0.00 | 72 | 1008.0 |
| 20260509082958 | 10 | 352 | 3.2 | 4.8 | 0.00 | 0.00 | 0.00 | 71 | 1007.9 |
| 20260509082456 | 10 | 286 | 8.0 | 11.3 | 0.00 | 0.00 | 0.00 | 71 | 1008.0 |
| 20260509081952 | 10 | 267 | 8.0 | 16.1 | 0.00 | 0.00 | 0.00 | 70 | 1008.0 |
| 20260509081450 | 10 | 251 | 8.0 | 11.3 | 0.00 | 0.00 | 0.00 | 70 | 1008.2 |
| 20260509080947 | 10 | 212 | 4.8 | 6.4 | 0.00 | 0.00 | 0.00 | 69 | 1008.4 |
| 20260509080445 | 10 | 144 | 4.8 | 9.7 | 0.00 | 0.00 | 0.00 | 67 | 1008.4 |
| 20260509075943 | 10 | 222 | 6.4 | 14.5 | 0.00 | 0.00 | 0.00 | 67 | 1008.2 |
| 20260509075439 | 10 | 74 | 4.8 | 4.8 | 0.00 | 0.00 | 0.00 | 67 | 1008.2 |
| 20260509074938 | 10 | 74 | 1.6 | 3.2 | 0.00 | 0.00 | 0.00 | 66 | 1008.5 |
| 20260509074435 | 10 | 327 | 3.2 | 3.2 | 0.00 | 0.00 | 0.00 | 65 | 1008.4 |
| 20260509073931 | 10 | 249 | 8.0 | 9.7 | 0.00 | 0.00 | 0.00 | 64 | 1008.6 |
| 20260509073427 | 10 | 151 | 8.0 | 16.1 | 0.00 | 0.00 | 0.00 | 64 | 1008.5 |
| 20260509072924 | 10 | 62 | 4.8 | 6.4 | 0.00 | 0.00 | 0.00 | 63 | 1008.6 |
| 20260509072421 | 10 | 99 | 3.2 | 3.2 | 0.00 | 0.00 | 0.00 | 64 | 1008.6 |
| 20260509071917 | 10 | 44 | 3.2 | 4.8 | 0.00 | 0.00 | 0.00 | 63 | 1008.5 |
| 20260509071414 | 10 | 188 | 3.2 | 4.8 | 0.00 | 0.00 | 0.00 | 61 | 1008.8 |
| 20260509070912 | 10 | 218 | 3.2 | 6.4 | 0.00 | 0.00 | 0.00 | 60 | 1008.8 |
| 20260509070408 | 10 | 311 | 4.8 | 6.4 | 0.00 | 0.00 | 0.00 | 61 | 1008.9 |
| 20260509065904 | 10 | 121 | 3.2 | 3.2 | 0.00 | 0.00 | 0.00 | 60 | 1008.7 |
| 20260509065400 | 10 | 106 | 6.4 | 9.7 | 0.00 | 0.00 | 0.00 | 61 | 1008.5 |
| 20260509064856 | 10 | 73 | 0.0 | 1.6 | 0.00 | 0.00 | 0.00 | 59 | 1008.9 |
| 20260509064354 | 10 | 102 | 3.2 | 4.8 | 0.00 | 0.00 | 0.00 | 59 | 1008.7 |
| 20260509063852 | 10 | 258 | 3.2 | 4.8 | 0.00 | 0.00 | 0.00 | 59 | 1009.0 |
| 20260509063347 | 10 | 105 | 6.4 | 11.3 | 0.00 | 0.00 | 0.00 | 58 | 1008.8 |
| 20260509062845 | 10 | 210 | 4.8 | 4.8 | 0.00 | 0.00 | 0.00 | 57 | 1009.0 |
| 20260509062342 | 11 | 289 | 3.2 | 6.4 | 0.00 | 0.00 | 0.00 | 58 | 1009.3 |
| 20260509061839 | 11 | 353 | 3.2 | 4.8 | 0.00 | 0.00 | 0.00 | 56 | 1009.3 |
| 20260509061337 | 11 | 321 | 3.2 | 3.2 | 0.00 | 0.00 | 0.00 | 57 | 1009.1 |
| 20260509060833 | 11 | 177 | 4.8 | 4.8 | 0.00 | 0.00 | 0.00 | 55 | 1009.1 |
| 20260509060331 | 11 | 208 | 3.2 | 6.4 | 0.00 | 0.00 | 0.00 | 55 | 1009.0 |
| 20260509055826 | 11 | 180 | 4.8 | 4.8 | 0.00 | 0.00 | 0.00 | 55 | 1009.1 |
| 20260509055327 | 10 | 110 | 4.8 | 9.7 | 0.00 | 0.00 | 0.00 | 54 | 1009.0 |
| 20260509054824 | 10 | 218 | 6.4 | 6.4 | 0.00 | 0.00 | 0.00 | 55 | 1009.0 |
| 20260509054321 | 10 | 66 | 3.2 | 4.8 | 0.00 | 0.00 | 0.00 | 54 | 1009.1 |
| 20260509053819 | 10 | 355 | 3.2 | 4.8 | 0.00 | 0.00 | 0.00 | 54 | 1009.3 |
| 20260509053316 | 10 | 27 | 1.6 | 3.2 | 0.00 | 0.00 | 0.00 | 55 | 1009.4 |
| 20260509052814 | 10 | 245 | 1.6 | 3.2 | 0.00 | 0.00 | 0.00 | 55 | 1009.4 |
| 20260509052311 | 10 | 22 | 4.8 | 6.4 | 0.00 | 0.00 | 0.00 | 56 | 1009.3 |
| 20260509051809 | 10 | 97 | 3.2 | 6.4 | 0.00 | 0.00 | 0.00 | 55 | 1009.1 |
| 20260509051307 | 10 | 72 | 3.2 | 6.4 | 0.00 | 0.00 | 0.00 | 55 | 1009.4 |
| 20260509050803 | 10 | 24 | 3.2 | 4.8 | 0.00 | 0.00 | 0.00 | 55 | 1009.1 |
| 20260509050300 | 10 | 359 | 6.4 | 9.7 | 0.00 | 0.00 | 0.00 | 55 | 1009.5 |
| 20260509045757 | 10 | 52 | 1.6 | 1.6 | 0.00 | 0.00 | 0.00 | 55 | 1009.4 |
| 20260509045254 | 10 | 229 | 1.6 | 3.2 | 0.00 | 0.00 | 0.00 | 56 | 1009.4 |
| 20260509044751 | 10 | 62 | 3.2 | 3.2 | 0.00 | 0.00 | 0.00 | 56 | 1009.5 |
| 20260509044249 | 10 | 281 | 3.2 | 4.8 | 0.00 | 0.00 | 0.00 | 56 | 1009.4 |
| 20260509043745 | 10 | 178 | 1.6 | 3.2 | 0.00 | 0.00 | 0.00 | 57 | 1009.5 |
| 20260509043241 | 10 | 50 | 3.2 | 4.8 | 0.00 | 0.00 | 0.00 | 57 | 1009.5 |
| 20260509042737 | 10 | 60 | 3.2 | 3.2 | 0.00 | 0.00 | 0.00 | 56 | 1009.5 |
| 20260509042233 | 10 | 182 | 4.8 | 6.4 | 0.00 | 0.00 | 0.00 | 56 | 1009.1 |
| 20260509041730 | 10 | 298 | 1.6 | 3.2 | 0.00 | 0.00 | 0.00 | 57 | 1009.4 |
| 20260509041227 | 10 | 283 | 1.6 | 3.2 | 0.00 | 0.00 | 0.00 | 57 | 1009.0 |
| 20260509040726 | 10 | 223 | 4.8 | 4.8 | 0.00 | 0.00 | 0.00 | 58 | 1009.1 |
| 20260509040222 | 10 | 73 | 3.2 | 4.8 | 0.00 | 0.00 | 0.00 | 57 | 1009.4 |
| 20260509035719 | 10 | 23 | 4.8 | 12.9 | 0.00 | 0.00 | 0.00 | 58 | 1009.3 |
| 20260509035216 | 10 | 77 | 3.2 | 3.2 | 0.00 | 0.00 | 0.00 | 58 | 1009.6 |
| 20260509034713 | 10 | 217 | 8.0 | 14.5 | 0.00 | 0.00 | 0.00 | 58 | 1009.6 |
| 20260509034211 | 10 | 52 | 1.6 | 3.2 | 0.00 | 0.00 | 0.00 | 58 | 1009.6 |
| 20260509033707 | 10 | 273 | 3.2 | 4.8 | 0.00 | 0.00 | 0.00 | 58 | 1009.6 |
| 20260509033204 | 10 | 182 | 8.0 | 12.9 | 0.00 | 0.00 | 0.00 | 58 | 1009.4 |
| 20260509032702 | 10 | 150 | 1.6 | 3.2 | 0.00 | 0.00 | 0.00 | 58 | 1009.7 |
| 20260509032158 | 10 | 274 | 1.6 | 3.2 | 0.00 | 0.00 | 0.00 | 58 | 1009.7 |
| 20260509031656 | 10 | 44 | 3.2 | 6.4 | 0.00 | 0.00 | 0.00 | 58 | 1009.7 |
| 20260509031153 | 10 | 190 | 3.2 | 4.8 | 0.00 | 0.00 | 0.00 | 58 | 1009.7 |
| 20260509030652 | 10 | 184 | 4.8 | 6.4 | 0.00 | 0.00 | 0.00 | 57 | 1009.8 |
| 20260509030148 | 10 | 345 | 3.2 | 4.8 | 0.00 | 0.00 | 0.00 | 58 | 1009.5 |
| 20260509025644 | 10 | 14 | 3.2 | 4.8 | 0.00 | 0.00 | 0.00 | 59 | 1009.8 |
| 20260509025141 | 10 | 173 | 4.8 | 4.8 | 0.00 | 0.00 | 0.00 | 58 | 1009.8 |
| 20260509024636 | 10 | 239 | 3.2 | 4.8 | 0.00 | 0.00 | 0.00 | 59 | 1009.8 |
| 20260509024132 | 10 | 143 | 6.4 | 9.7 | 0.00 | 0.00 | 0.00 | 58 | 1010.0 |
| 20260509023630 | 10 | 71 | 3.2 | 3.2 | 0.00 | 0.00 | 0.00 | 58 | 1009.9 |
| 20260509023127 | 10 | 39 | 3.2 | 3.2 | 0.00 | 0.00 | 0.00 | 59 | 1009.9 |
| 20260509022623 | 10 | 108 | 3.2 | 4.8 | 0.00 | 0.00 | 0.00 | 60 | 1009.9 |
| 20260509022121 | 10 | 70 | 3.2 | 3.2 | 0.00 | 0.00 | 0.00 | 59 | 1009.9 |
| 20260509021618 | 10 | 83 | 3.2 | 4.8 | 0.00 | 0.00 | 0.00 | 58 | 1009.9 |
| 20260509021115 | 10 | 344 | 4.8 | 6.4 | 0.00 | 0.00 | 0.00 | 59 | 1009.9 |
| 20260509020613 | 10 | 117 | 1.6 | 3.2 | 0.00 | 0.00 | 0.00 | 59 | 1009.8 |